QPF
0.00 0.00 0.00 0.00 0.00 0.01 0.01 0.01 0.00 0.00 0.00 0.00 0.00 0.00 0.00 0.00 0.00 0.00 0.00 0.00 0.00 0.00 0.00 0.00 0.00 0.01 0.01 0.01 0.00 0.00 0.00 0.00 0.00 0.00 0.00 0.00 0.00 0.00 0.00 0.00 0.00 0.00 0.00 0.00 0.00 0.00 0.00
0.01 0.00 0.00 0.00 0.00 0.00 0.01 0.01 0.01 0.01 0.00 0.00 0.00 0.00 0.00 0.00 0.00 0.00 0.00 0.00 0.00 0.00 0.00 0.00 0.00 0.01 0.01 0.00 0.00 0.00 0.00 0.00 0.00 0.00 0.00 0.00 0.00 0.00 0.00 0.00 0.00 0.00 0.00 0.00 0.00 0.00 0.00
0.03 0.01 0.00 0.00 0.00 0.00 0.00 0.01 0.01 0.01 0.00 0.00 0.00 0.00 0.00 0.00 0.00 0.00 0.00 0.00 0.00 0.00 0.00 0.00 0.01 0.01 0.01 0.00 0.00 0.00 0.00 0.00 0.00 0.00 0.00 0.00 0.00 0.01 0.01 0.00 0.00 0.00 0.01 0.00 0.00 0.00 0.00
0.03 0.03 0.03 0.00 0.00 0.00 0.00 0.01 0.01 0.00 0.01 0.00 0.00 0.00 0.00 0.00 0.00 0.00 0.00 0.00 0.00 0.00 0.00 0.00 0.00 0.01 0.01 0.00 0.00 0.00 0.00 0.00 0.00 0.00 0.00 0.00 0.00 0.00 0.00 0.00 0.00 0.01 0.02 0.00 0.00 0.00 0.00
0.04 0.05 0.05 0.03 0.00 0.00 0.01 0.01 0.01 0.01 0.01 0.00 0.00 0.00 0.00 0.00 0.00 0.00 0.00 0.00 0.00 0.00 0.01 0.01 0.00 0.01 0.00 0.00 0.00 0.00 0.00 0.00 0.00 0.00 0.00 0.00 0.00 0.00 0.00 0.01 0.00 0.00 0.00 0.00 0.00 0.00 0.00
0.03 0.04 0.04 0.02 0.01 0.00 0.00 0.01 0.01 0.01 0.01 0.01 0.00 0.00 0.00 0.00 0.00 0.00 0.01 0.00 0.00 0.00 0.01 0.01 0.00 0.01 0.00 0.00 0.00 0.00 0.00 0.00 0.00 0.00 0.00 0.00 0.00 0.00 0.00 0.01 0.00 0.00 0.01 0.00 0.00 0.00 0.01
0.00 0.02 0.03 0.03 0.04 0.04 0.01 0.01 0.01 0.01 0.01 0.02 0.02 0.01 0.00 0.00 0.00 0.01 0.00 0.00 0.00 0.00 0.01 0.00 0.00 0.00 0.00 0.00 0.00 0.00 0.00 0.00 0.00 0.00 0.00 0.00 0.00 0.00 0.00 0.00 0.00 0.00 0.00 0.01 0.00 0.00 0.02
0.00 0.00 0.02 0.06 0.12 0.08 0.03 0.01 0.01 0.01 0.01 0.01 0.01 0.01 0.00 0.00 0.00 0.01 0.01 0.00 0.00 0.00 0.00 0.00 0.00 0.00 0.00 0.00 0.00 0.00 0.00 0.00 0.00 0.00 0.00 0.00 0.00 0.00 0.00 0.00 0.00 0.00 0.00 0.00 0.00 0.01 0.03
0.00 0.00 0.02 0.11 0.10 0.09 0.09 0.04 0.03 0.02 0.01 0.02 0.02 0.01 0.00 0.00 0.00 0.01 0.00 0.00 0.00 0.00 0.01 0.01 0.00 0.00 0.00 0.00 0.00 0.00 0.00 0.00 0.00 0.00 0.00 0.00 0.00 0.00 0.00 0.00 0.00 0.00 0.00 0.00 0.00 0.03 0.04
0.00 0.01 0.01 0.06 0.14 0.18 0.18 0.10 0.05 0.05 0.04 0.04 0.03 0.01 0.00 0.00 0.00 0.00 0.00 0.00 0.00 0.00 0.01 0.00 0.00 0.00 0.00 0.01 0.01 0.00 0.00 0.00 0.00 0.00 0.00 0.00 0.00 0.00 0.00 0.00 0.00 0.00 0.00 0.00 0.01 0.06 0.02
0.01 0.01 0.01 0.01 0.03 0.10 0.16 0.15 0.07 0.05 0.06 0.04 0.02 0.00 0.00 0.00 0.00 0.00 0.00 0.00 0.00 0.00 0.01 0.00 0.00 0.00 0.00 0.01 0.00 0.00 0.00 0.04 0.03 0.00 0.01 0.01 0.00 0.00 0.00 0.00 0.00 0.00 0.00 0.01 0.03 0.27 0.23
0.01 0.02 0.03 0.02 0.02 0.05 0.09 0.09 0.12 0.06 0.07 0.05 0.01 0.00 0.00 0.00 0.00 0.00 0.00 0.00 0.00 0.00 0.01 0.00 0.00 0.00 0.01 0.01 0.00 0.00 0.00 0.03 0.05 0.07 0.06 0.01 0.00 0.01 0.00 0.00 0.00 0.00 0.00 0.02 0.11 0.17 0.48
0.02 0.04 0.04 0.03 0.02 0.06 0.12 0.13 0.14 0.11 0.08 0.06 0.02 0.00 0.00 0.00 0.00 0.00 0.00 0.00 0.01 0.01 0.00 0.00 0.00 0.00 0.00 0.01 0.01 0.03 0.06 0.03 0.08 0.11 0.05 0.01 0.00 0.01 0.03 0.02 0.01 0.01 0.03 0.05 0.18 0.42 0.29
0.02 0.03 0.05 0.05 0.07 0.09 0.17 0.18 0.17 0.15 0.10 0.10 0.08 0.03 0.00 0.00 0.00 0.00 0.00 0.00 0.01 0.00 0.00 0.00 0.00 0.01 0.01 0.01 0.03 0.02 0.17 0.05 0.03 0.02 0.01 0.00 0.00 0.00 0.00 0.01 0.03 0.02 0.02 0.11 0.10 0.17 0.16
0.03 0.06 0.08 0.07 0.11 0.17 0.21 0.20 0.16 0.15 0.11 0.11 0.13 0.17 0.04 0.00 0.00 0.00 0.00 0.00 0.00 0.00 0.01 0.01 0.03 0.05 0.01 0.01 0.05 0.03 0.07 0.06 0.00 0.00 0.02 0.03 0.05 0.01 0.00 0.00 0.05 0.05 0.03 0.08 0.30 0.06 0.07
0.04 0.06 0.07 0.08 0.10 0.21 0.19 0.19 0.18 0.16 0.13 0.17 0.20 0.21 0.08 0.03 0.03 0.02 0.01 0.00 0.00 0.01 0.01 0.05 0.04 0.01 0.00 0.00 0.02 0.01 0.01 0.00 0.00 0.00 0.00 0.02 0.13 0.09 0.03 0.03 0.04 0.11 0.03 0.14 0.47 0.34 0.07
0.03 0.04 0.06 0.13 0.22 0.30 0.24 0.19 0.19 0.19 0.21 0.42 0.12 0.16 0.10 0.10 0.20 0.14 0.02 0.00 0.00 0.00 0.03 0.06 0.03 0.00 0.00 0.00 0.00 0.00 0.00 0.00 0.00 0.00 0.00 0.03 0.08 0.09 0.11 0.06 0.04 0.21 0.17 0.15 0.31 0.26 0.10
0.01 0.02 0.07 0.17 0.24 0.30 0.31 0.20 0.14 0.43 0.42 0.58 0.16 0.09 0.06 0.10 0.21 0.08 0.01 0.00 0.00 0.01 0.04 0.09 0.05 0.00 0.00 0.00 0.00 0.00 0.00 0.00 0.00 0.00 0.01 0.03 0.08 0.08 0.07 0.03 0.02 0.04 0.13 0.09 0.32 0.31 0.10
0.00 0.01 0.04 0.11 0.24 0.24 0.23 0.16 0.05 0.48 0.51 0.33 0.16 0.10 0.16 0.05 0.06 0.01 0.00 0.00 0.01 0.03 0.06 0.08 0.02 0.00 0.00 0.00 0.00 0.00 0.00 0.00 0.00 0.00 0.04 0.14 0.16 0.08 0.09 0.11 0.15 0.17 0.16 0.22 0.28 0.32 0.08
0.00 0.00 0.02 0.06 0.14 0.19 0.19 0.17 0.13 0.42 0.31 0.12 0.11 0.10 0.25 0.18 0.02 0.00 0.00 0.01 0.02 0.03 0.05 0.04 0.02 0.00 0.00 0.00 0.00 0.00 0.00 0.00 0.00 0.00 0.06 0.32 0.22 0.32 0.23 0.13 0.08 0.16 0.17 0.27 0.33 0.10 0.01
0.00 0.00 0.00 0.03 0.09 0.14 0.15 0.20 0.46 0.68 0.31 0.03 0.04 0.04 0.04 0.06 0.01 0.00 0.01 0.02 0.03 0.08 0.07 0.02 0.00 0.00 0.00 0.00 0.00 0.00 0.00 0.00 0.00 0.00 0.04 0.19 0.49 0.62 0.13 0.04 0.01 0.04 0.10 0.18 0.17 0.02 0.00
0.00 0.00 0.00 0.01 0.05 0.11 0.10 0.12 0.37 0.62 0.36 0.08 0.03 0.01 0.01 0.01 0.00 0.00 0.00 0.01 0.02 0.09 0.12 0.04 0.00 0.00 0.00 0.00 0.00 0.00 0.00 0.00 0.00 0.00 0.00 0.08 0.23 0.14 0.02 0.01 0.02 0.03 0.02 0.01 0.00 0.00 0.00
0.00 0.00 0.00 0.01 0.03 0.09 0.05 0.14 0.29 0.53 0.27 0.12 0.04 0.02 0.00 0.01 0.01 0.01 0.00 0.00 0.01 0.10 0.06 0.03 0.00 0.00 0.00 0.00 0.00 0.00 0.00 0.00 0.00 0.00 0.00 0.02 0.05 0.01 0.01 0.00 0.00 0.00 0.00 0.00 0.00 0.00 0.00
0.00 0.00 0.00 0.00 0.02 0.05 0.05 0.22 0.41 0.64 0.48 0.05 0.01 0.04 0.02 0.02 0.01 0.00 0.00 0.00 0.01 0.05 0.07 0.07 0.01 0.00 0.01 0.03 0.02 0.00 0.00 0.00 0.00 0.00 0.00 0.00 0.00 0.00 0.00 0.00 0.00 0.00 0.00 0.00 0.00 0.00 0.00
0.00 0.00 0.00 0.00 0.02 0.03 0.05 0.28 0.36 0.20 0.22 0.03 0.03 0.03 0.03 0.02 0.01 0.01 0.00 0.00 0.01 0.03 0.08 0.10 0.03 0.00 0.01 0.02 0.03 0.04 0.03 0.02 0.00 0.00 0.00 0.00 0.00 0.00 0.00 0.00 0.00 0.00 0.00 0.00 0.00 0.00 0.00
0.00 0.00 0.00 0.00 0.01 0.02 0.03 0.16 0.25 0.08 0.16 0.09 0.02 0.04 0.04 0.02 0.02 0.02 0.01 0.00 0.01 0.06 0.10 0.09 0.04 0.02 0.02 0.02 0.03 0.03 0.02 0.03 0.00 0.00 0.01 0.00 0.00 0.00 0.00 0.00 0.00 0.00 0.00 0.00 0.00 0.00 0.00
0.00 0.00 0.00 0.00 0.01 0.02 0.01 0.05 0.21 0.07 0.07 0.05 0.02 0.02 0.05 0.03 0.00 0.01 0.01 0.00 0.03 0.11 0.13 0.11 0.04 0.02 0.02 0.08 0.05 0.01 0.00 0.00 0.00 0.00 0.00 0.01 0.00 0.00 0.00 0.00 0.00 0.00 0.00 0.00 0.00 0.00 0.00
0.01 0.00 0.00 0.00 0.00 0.02 0.01 0.03 0.16 0.07 0.10 0.08 0.00 0.01 0.03 0.02 0.00 0.00 0.00 0.00 0.05 0.11 0.13 0.12 0.07 0.06 0.04 0.06 0.06 0.01 0.00 0.00 0.00 0.00 0.00 0.00 0.01 0.01 0.00 0.00 0.00 0.00 0.00 0.00 0.00 0.00 0.00
0.02 0.00 0.00 0.00 0.00 0.01 0.01 0.02 0.14 0.10 0.08 0.10 0.01 0.00 0.02 0.02 0.01 0.00 0.00 0.00 0.03 0.08 0.12 0.12 0.09 0.02 0.02 0.02 0.00 0.00 0.00 0.00 0.00 0.00 0.00 0.00 0.00 0.00 0.00 0.00 0.00 0.00 0.00 0.00 0.00 0.00 0.00
MSLP
1014.99 1014.81 1014.73 1014.50 1014.39 1014.22 1014.07 1013.84 1013.75 1013.82 1013.94 1014.11 1014.19 1014.39 1014.52 1014.60 1014.79 1014.87 1014.87 1014.90 1015.02 1015.01 1015.05 1015.13 1015.04 1015.12 1015.39 1015.20 1013.63 1012.87 1012.57 1012.53 1012.82 1013.32 1013.82 1014.37 1014.58 1014.51 1014.30 1013.67 1013.26 1012.48 1012.10 1011.36 1010.51 1010.12 1009.54
1014.51 1014.15 1014.05 1013.97 1013.76 1013.67 1013.61 1013.42 1013.33 1013.24 1013.42 1013.66 1013.83 1014.05 1014.20 1014.29 1014.50 1014.68 1014.75 1014.75 1014.85 1014.94 1014.95 1015.06 1015.00 1015.14 1015.44 1014.60 1012.89 1012.85 1012.64 1012.65 1012.79 1013.22 1013.60 1013.99 1013.89 1013.80 1013.86 1013.56 1013.28 1012.31 1011.80 1010.73 1010.06 1009.57 1009.30
1014.50 1013.75 1013.41 1013.36 1013.29 1013.12 1013.00 1012.94 1012.87 1012.82 1012.89 1013.06 1013.34 1013.59 1013.77 1014.05 1014.12 1014.34 1014.47 1014.59 1014.62 1014.66 1014.89 1014.98 1014.95 1015.07 1014.89 1013.46 1012.38 1012.63 1012.45 1012.55 1012.71 1012.85 1013.27 1013.32 1013.37 1013.70 1013.30 1013.13 1012.70 1012.30 1011.54 1010.46 1009.63 1009.33 1009.10
1014.50 1013.69 1013.06 1012.66 1012.64 1012.57 1012.47 1012.39 1012.36 1012.33 1012.39 1012.56 1012.80 1013.11 1013.38 1013.60 1013.77 1013.93 1014.22 1014.43 1014.48 1014.60 1014.75 1014.94 1014.92 1015.15 1013.95 1012.52 1012.58 1012.67 1012.68 1012.50 1012.59 1012.80 1013.03 1012.97 1013.13 1013.29 1013.25 1013.18 1012.78 1012.64 1011.73 1010.47 1009.90 1009.61 1008.77
1014.55 1013.84 1013.19 1012.53 1012.01 1011.94 1011.88 1011.76 1011.65 1011.74 1011.86 1012.06 1012.26 1012.57 1012.99 1013.22 1013.42 1013.64 1013.86 1014.30 1014.45 1014.54 1014.61 1014.77 1015.14 1015.08 1013.46 1012.03 1012.27 1012.38 1012.64 1012.56 1012.70 1012.78 1012.91 1012.91 1013.11 1013.45 1013.41 1013.46 1013.58 1013.23 1012.26 1011.34 1010.51 1009.53 1009.28
1014.53 1013.74 1013.08 1012.33 1011.60 1011.37 1011.18 1011.15 1011.03 1011.09 1011.25 1011.42 1011.72 1012.08 1012.45 1012.82 1013.05 1013.42 1013.72 1014.09 1014.29 1014.42 1014.49 1014.53 1014.52 1014.94 1013.02 1011.99 1011.91 1011.94 1012.34 1012.67 1012.91 1013.04 1013.26 1013.15 1013.34 1013.39 1013.78 1014.01 1013.29 1013.34 1012.75 1011.93 1010.62 1009.57 1009.37
1014.65 1013.92 1013.06 1012.26 1011.22 1010.90 1010.55 1010.45 1010.46 1010.46 1010.57 1010.84 1011.08 1011.54 1011.99 1012.35 1012.81 1013.09 1013.85 1014.21 1014.81 1014.72 1014.25 1013.46 1013.23 1012.66 1011.61 1011.49 1011.67 1011.90 1012.27 1012.82 1013.17 1013.57 1013.90 1013.53 1013.50 1013.41 1014.15 1013.85 1013.90 1013.43 1012.70 1011.52 1010.25 1009.72 1009.04
1014.51 1013.72 1012.90 1012.16 1011.31 1010.33 1009.82 1009.71 1009.70 1009.81 1009.92 1010.14 1010.51 1010.97 1011.54 1012.05 1012.38 1012.82 1013.47 1013.62 1013.85 1013.94 1013.69 1013.20 1012.63 1012.41 1011.76 1011.56 1011.91 1011.83 1012.11 1012.97 1013.29 1013.59 1014.25 1014.29 1012.48 1013.43 1013.51 1013.63 1013.67 1013.50 1012.91 1011.30 1010.77 1010.09 1009.31
1014.20 1013.41 1012.74 1011.97 1011.00 1010.29 1009.75 1008.99 1009.02 1008.98 1009.22 1009.50 1009.96 1010.55 1011.15 1011.81 1012.26 1012.76 1013.12 1013.07 1013.60 1013.60 1013.76 1012.56 1011.93 1011.66 1011.70 1011.68 1011.56 1011.56 1012.04 1012.43 1012.97 1013.74 1013.92 1013.29 1012.58 1012.84 1013.12 1013.28 1013.16 1012.76 1012.26 1011.80 1011.25 1010.36 1009.26
1014.06 1013.18 1012.56 1011.70 1010.85 1010.01 1009.47 1008.85 1008.46 1008.45 1008.45 1008.88 1009.48 1010.20 1010.83 1011.58 1012.79 1012.46 1012.81 1012.80 1013.41 1013.61 1013.64 1012.42 1012.06 1011.30 1011.32 1011.56 1011.41 1011.22 1011.28 1011.83 1012.67 1012.96 1013.56 1012.97 1012.82 1012.68 1012.70 1012.37 1012.48 1011.99 1011.66 1011.63 1011.27 1011.17 1009.56
1013.78 1012.98 1012.25 1011.28 1010.57 1009.83 1009.08 1008.83 1008.22 1008.02 1007.84 1008.21 1008.96 1009.87 1010.34 1010.74 1011.32 1012.01 1012.27 1012.15 1013.38 1013.85 1013.67 1011.91 1011.65 1011.26 1011.23 1011.71 1011.24 1011.04 1010.84 1011.33 1011.74 1012.21 1012.83 1011.88 1011.68 1011.95 1012.09 1010.93 1012.22 1011.12 1011.75 1011.47 1011.15 1010.86 1010.47
1013.34 1012.78 1011.89 1010.83 1010.00 1009.36 1008.83 1008.48 1008.03 1007.47 1007.37 1007.50 1008.36 1009.30 1010.12 1010.63 1011.32 1011.91 1012.04 1012.10 1013.43 1013.72 1012.36 1011.36 1011.39 1011.51 1011.65 1011.55 1011.19 1010.89 1011.21 1011.62 1011.73 1012.06 1012.14 1011.97 1011.71 1011.53 1011.34 1011.44 1011.56 1011.33 1011.75 1011.55 1011.05 1010.99 1009.95
1013.01 1012.41 1011.45 1010.40 1009.53 1008.64 1008.17 1007.79 1007.42 1006.85 1006.80 1006.87 1007.73 1008.69 1009.59 1009.81 1010.99 1011.74 1011.85 1012.39 1013.43 1012.70 1010.84 1011.18 1011.10 1011.33 1011.34 1011.18 1011.23 1011.15 1011.31 1011.42 1011.64 1011.77 1011.89 1012.11 1011.70 1011.60 1011.58 1011.47 1011.11 1011.58 1012.19 1011.63 1011.13 1010.39 1007.60
1012.82 1012.21 1011.05 1009.98 1009.24 1008.26 1007.80 1007.48 1006.88 1006.38 1006.14 1006.27 1006.93 1008.06 1008.98 1009.43 1010.21 1011.25 1011.78 1012.52 1012.22 1010.31 1010.08 1010.52 1010.84 1011.07 1010.99 1010.91 1010.81 1010.86 1011.13 1010.95 1011.21 1011.52 1011.76 1011.80 1011.28 1010.69 1010.48 1010.59 1010.27 1010.67 1011.44 1010.73 1009.61 1007.58 1007.00
1012.65 1011.84 1010.66 1009.57 1008.70 1007.79 1006.70 1006.74 1006.85 1005.90 1005.40 1005.71 1006.11 1007.69 1008.73 1009.39 1009.89 1010.60 1011.18 1011.63 1010.13 1009.42 1009.50 1010.11 1010.61 1010.56 1010.61 1010.65 1010.87 1010.47 1010.46 1010.55 1010.18 1010.78 1011.39 1011.12 1010.45 1009.31 1008.83 1008.88 1009.68 1009.53 1009.62 1008.98 1009.19 1007.51 1006.79
1012.20 1011.38 1010.46 1009.52 1008.65 1007.42 1006.56 1006.34 1006.01 1005.76 1004.94 1005.16 1005.38 1007.02 1007.94 1008.82 1009.46 1010.34 1010.74 1009.94 1009.26 1008.70 1009.26 1009.92 1009.91 1010.18 1009.87 1009.89 1010.26 1010.16 1009.61 1008.82 1009.00 1008.91 1009.67 1010.25 1010.10 1009.14 1009.08 1009.01 1008.78 1008.21 1008.27 1009.33 1009.09 1007.71 1005.77
1011.94 1010.99 1009.96 1009.43 1008.38 1007.14 1006.35 1006.12 1005.74 1004.88 1004.75 1004.37 1005.01 1006.36 1007.20 1008.46 1009.51 1010.05 1009.40 1009.13 1008.52 1008.44 1008.76 1009.60 1009.26 1009.22 1009.11 1009.05 1009.18 1009.01 1007.93 1007.20 1007.19 1007.34 1008.56 1009.78 1010.19 1008.55 1008.81 1007.51 1006.70 1007.83 1007.46 1007.16 1007.57 1006.68 1005.22
1011.65 1010.70 1009.77 1009.12 1008.23 1006.85 1005.93 1005.25 1004.75 1004.23 1003.92 1003.37 1003.86 1005.37 1006.71 1007.85 1008.87 1008.91 1008.50 1008.27 1008.07 1008.13 1008.34 1008.54 1008.63 1008.28 1007.83 1007.70 1007.89 1007.67 1006.64 1005.88 1005.88 1006.40 1007.90 1009.07 1009.30 1008.17 1007.11 1005.71 1005.78 1006.02 1005.97 1005.61 1005.82 1005.87 1005.25
1011.26 1010.54 1009.60 1008.71 1007.87 1006.74 1005.90 1005.01 1004.30 1002.88 1002.37 1001.67 1003.47 1005.24 1006.56 1006.69 1007.31 1007.57 1007.69 1007.64 1007.71 1007.73 1007.62 1007.52 1007.39 1006.74 1005.95 1006.17 1006.84 1005.84 1005.23 1004.35 1005.04 1006.37 1007.69 1008.53 1008.28 1007.49 1005.52 1004.96 1004.21 1004.32 1004.59 1004.89 1003.97 1004.87 1003.44
1011.02 1010.26 1009.42 1008.30 1007.52 1006.40 1005.26 1004.30 1003.28 1002.89 1001.98 1001.88 1003.53 1004.48 1005.77 1006.31 1006.27 1006.71 1007.08 1006.93 1007.12 1007.20 1007.20 1006.79 1006.21 1005.85 1005.47 1005.00 1004.69 1004.33 1004.17 1003.76 1004.17 1005.32 1007.10 1008.14 1007.43 1005.85 1004.58 1002.91 1002.24 1002.55 1003.39 1003.89 1004.27 1003.97 1000.91
1010.74 1010.11 1009.30 1008.35 1007.41 1006.73 1005.60 1004.62 1003.88 1003.23 1001.97 1001.73 1002.85 1003.29 1003.77 1005.16 1005.85 1005.99 1006.24 1006.23 1006.30 1006.57 1006.43 1005.84 1005.73 1005.23 1004.70 1004.09 1003.66 1003.62 1003.04 1003.15 1004.32 1005.08 1006.65 1007.21 1005.90 1004.69 1003.29 1002.52 1001.51 1001.42 1002.20 1002.70 1002.89 1001.93 999.98
1010.30 1009.67 1008.82 1008.16 1007.40 1006.20 1005.38 1004.67 1003.36 1002.65 1001.06 1001.41 1002.46 1002.88 1003.72 1004.38 1005.01 1005.55 1005.66 1005.35 1005.52 1005.76 1005.84 1005.05 1004.72 1004.06 1003.90 1003.39 1002.89 1002.29 1002.45 1002.77 1003.37 1005.28 1005.70 1005.95 1004.84 1003.51 1001.38 1001.10 1001.14 1001.17 1001.37 1001.47 1000.77 999.57 999.80
1009.97 1009.43 1008.61 1007.64 1006.77 1006.12 1005.52 1005.30 1004.21 1002.50 1001.91 1001.33 1002.21 1002.47 1002.61 1003.26 1003.92 1004.65 1004.55 1004.45 1004.17 1004.76 1004.79 1004.55 1004.53 1004.41 1003.53 1002.52 1002.29 1001.75 1001.67 1001.99 1002.38 1003.13 1004.19 1004.63 1004.24 1003.13 1002.14 1000.98 1001.03 1000.73 999.87 999.90 999.86 999.33 999.20
1009.53 1009.01 1008.45 1007.84 1007.08 1006.18 1005.10 1004.18 1003.68 1002.56 1002.30 1001.72 1001.78 1002.57 1002.92 1003.09 1003.24 1003.45 1003.55 1003.63 1003.68 1003.75 1003.78 1003.79 1004.11 1004.06 1002.80 1002.12 1002.06 1001.75 1001.85 1002.26 1002.38 1003.06 1003.24 1003.83 1003.90 1003.11 1002.63 1001.53 1001.04 999.98 999.27 998.94 999.03 999.15 999.52
1009.35 1008.74 1008.05 1007.54 1007.00 1006.08 1005.11 1004.18 1003.65 1002.79 1002.52 1001.96 1001.77 1002.01 1002.50 1002.76 1002.90 1003.14 1003.32 1002.79 1002.89 1003.15 1003.39 1003.07 1003.12 1003.29 1002.63 1002.58 1002.45 1002.76 1003.02 1002.75 1003.10 1003.24 1003.09 1003.24 1003.56 1003.38 1003.20 1002.29 1001.06 999.97 999.47 999.18 999.18 999.64 999.73
1008.93 1008.41 1007.83 1007.14 1006.56 1005.71 1004.96 1004.38 1003.52 1003.15 1002.49 1001.64 1001.77 1001.92 1002.37 1002.69 1002.68 1002.64 1003.09 1003.06 1003.15 1003.21 1003.27 1002.72 1002.90 1002.97 1002.50 1002.62 1002.61 1002.93 1003.11 1003.26 1003.43 1003.19 1003.22 1003.01 1003.33 1003.68 1003.63 1002.86 1001.36 1000.07 999.49 999.14 999.18 1000.22 1000.48
1008.63 1008.18 1007.67 1007.10 1006.58 1005.88 1005.17 1004.52 1003.65 1003.00 1002.37 1001.84 1001.86 1002.05 1002.39 1002.71 1002.36 1002.37 1002.74 1002.86 1002.92 1003.14 1003.25 1003.10 1002.83 1002.76 1002.70 1002.50 1002.90 1002.81 1003.06 1003.06 1003.44 1003.40 1003.26 1003.25 1003.71 1003.84 1003.63 1003.05 1001.48 1000.19 999.71 999.60 1000.25 1001.22 1000.83
1008.30 1007.89 1007.28 1006.84 1006.51 1005.92 1004.93 1004.14 1003.64 1003.05 1002.33 1002.28 1002.00 1002.15 1002.42 1002.48 1002.18 1002.03 1002.24 1002.50 1002.80 1003.03 1003.11 1003.03 1002.82 1002.85 1002.68 1002.59 1002.85 1002.14 1002.46 1002.66 1002.85 1002.73 1002.60 1002.72 1003.14 1003.40 1003.67 1003.13 1001.89 1000.12 1000.24 1000.45 1000.94 1001.12 1001.62
1007.94 1007.44 1007.01 1006.57 1006.15 1005.62 1005.03 1004.21 1003.52 1002.88 1002.45 1002.10 1002.05 1002.30 1002.45 1002.60 1002.44 1002.14 1001.95 1001.85 1001.95 1002.22 1002.87 1002.79 1002.45 1001.91 1001.79 1001.89 1002.05 1001.96 1002.01 1002.15 1002.26 1002.72 1002.33 1002.41 1001.85 1002.15 1002.45 1001.68 1000.93 1000.74 1000.79 1000.88 1001.13 1001.85 1002.74
Thickness
5580 5581 5582 5584 5586 5587 5590 5594 5596 5598 5598 5598 5598 5597 5597 5598 5597 5597 5597 5597 5596 5596 5595 5594 5595 5594 5592 5591 5605 5615 5620 5621 5619 5615 5611 5608 5607 5610 5610 5621 5626 5631 5641 5652 5665 5668 5674
5576 5577 5579 5580 5582 5584 5585 5588 5592 5593 5593 5593 5592 5591 5592 5592 5591 5591 5591 5591 5590 5589 5589 5587 5587 5586 5583 5585 5606 5605 5609 5612 5611 5608 5603 5603 5605 5609 5608 5612 5614 5631 5636 5650 5660 5665 5668
5569 5573 5574 5575 5576 5579 5581 5582 5584 5587 5588 5588 5588 5587 5586 5585 5586 5585 5585 5585 5584 5584 5582 5579 5580 5580 5579 5587 5600 5599 5600 5601 5600 5601 5597 5602 5602 5601 5608 5607 5619 5625 5627 5642 5652 5659 5658
5558 5563 5568 5570 5570 5572 5574 5576 5578 5580 5581 5582 5583 5582 5581 5580 5580 5580 5580 5578 5578 5577 5575 5573 5572 5572 5575 5590 5589 5588 5588 5591 5591 5590 5589 5593 5596 5595 5598 5604 5607 5606 5616 5621 5640 5646 5658
5544 5550 5555 5560 5564 5565 5566 5569 5572 5573 5574 5575 5576 5576 5575 5575 5574 5574 5573 5571 5570 5569 5568 5567 5563 5562 5569 5587 5581 5581 5578 5577 5578 5579 5579 5583 5582 5580 5585 5582 5581 5584 5593 5601 5617 5639 5639
5531 5536 5541 5548 5554 5557 5559 5561 5564 5566 5567 5568 5569 5569 5569 5568 5568 5567 5566 5563 5562 5561 5562 5561 5561 5555 5569 5575 5575 5575 5572 5568 5562 5562 5562 5566 5564 5564 5561 5561 5568 5575 5577 5594 5605 5628 5626
5516 5520 5526 5532 5540 5542 5548 5552 5554 5557 5559 5560 5562 5562 5562 5561 5560 5560 5556 5553 5548 5551 5554 5563 5564 5566 5574 5572 5568 5563 5560 5553 5550 5545 5536 5547 5547 5549 5543 5553 5557 5564 5573 5590 5609 5620 5619
5500 5503 5507 5513 5519 5528 5535 5540 5544 5547 5550 5552 5552 5554 5554 5553 5552 5553 5549 5548 5550 5548 5552 5557 5560 5560 5560 5560 5552 5552 5549 5537 5533 5530 5522 5526 5547 5542 5546 5546 5546 5550 5554 5573 5589 5602 5605
5478 5481 5484 5490 5498 5506 5514 5524 5529 5537 5540 5543 5544 5544 5545 5543 5543 5543 5543 5546 5540 5542 5538 5555 5556 5552 5549 5547 5542 5542 5536 5531 5524 5511 5513 5521 5536 5535 5534 5533 5537 5545 5548 5561 5570 5589 5602
5451 5453 5456 5463 5472 5483 5493 5501 5512 5521 5529 5534 5535 5535 5536 5534 5530 5536 5536 5538 5533 5533 5528 5551 5540 5546 5542 5535 5532 5534 5532 5524 5513 5508 5506 5513 5520 5522 5523 5529 5534 5535 5560 5564 5569 5569 5579
5424 5424 5425 5434 5443 5457 5473 5482 5496 5503 5515 5524 5527 5526 5528 5531 5532 5531 5533 5535 5525 5523 5514 5540 5536 5535 5531 5521 5526 5523 5522 5513 5509 5508 5502 5511 5518 5513 5511 5538 5527 5546 5547 5555 5562 5564 5569
5402 5400 5402 5411 5421 5435 5450 5465 5483 5492 5502 5513 5517 5518 5519 5523 5522 5523 5525 5527 5517 5515 5505 5534 5528 5518 5513 5511 5513 5513 5504 5500 5499 5493 5492 5499 5507 5509 5516 5521 5524 5540 5535 5542 5554 5554 5553
5385 5381 5384 5392 5404 5421 5434 5454 5471 5485 5496 5505 5509 5511 5513 5519 5517 5515 5518 5515 5512 5512 5542 5528 5523 5514 5509 5507 5499 5496 5484 5484 5487 5485 5479 5485 5487 5496 5498 5503 5516 5512 5515 5525 5530 5538 5566
5368 5366 5372 5381 5390 5407 5420 5437 5458 5483 5493 5502 5507 5505 5507 5514 5514 5510 5510 5510 5511 5542 5534 5528 5516 5510 5503 5501 5492 5486 5469 5477 5481 5477 5471 5457 5462 5492 5498 5502 5511 5512 5514 5526 5532 5557 5581
5355 5356 5365 5375 5386 5399 5420 5434 5452 5474 5489 5500 5506 5500 5502 5506 5508 5508 5504 5503 5523 5538 5537 5520 5506 5502 5497 5489 5481 5479 5474 5472 5490 5479 5461 5476 5479 5504 5510 5513 5511 5511 5511 5552 5540 5566 5577
5348 5352 5360 5373 5383 5400 5417 5431 5450 5468 5486 5495 5505 5501 5502 5502 5504 5502 5505 5519 5524 5535 5524 5511 5511 5498 5503 5493 5480 5470 5479 5492 5493 5497 5492 5483 5477 5499 5500 5504 5508 5518 5543 5525 5532 5562 5578
5344 5350 5360 5367 5378 5398 5417 5431 5448 5468 5484 5498 5501 5501 5502 5498 5496 5497 5515 5515 5528 5529 5524 5507 5509 5504 5501 5492 5482 5484 5498 5509 5509 5509 5499 5482 5474 5498 5493 5512 5526 5512 5527 5548 5554 5555 5581
5342 5348 5356 5362 5375 5395 5415 5432 5454 5470 5485 5498 5502 5507 5499 5497 5498 5505 5516 5520 5528 5522 5522 5514 5505 5512 5512 5507 5497 5495 5509 5519 5519 5516 5502 5486 5486 5500 5515 5534 5537 5538 5546 5560 5556 5561 5561
5342 5347 5355 5366 5378 5398 5415 5437 5455 5478 5492 5506 5504 5500 5494 5501 5504 5513 5519 5520 5523 5521 5522 5519 5513 5525 5530 5526 5511 5520 5526 5537 5527 5512 5497 5494 5501 5512 5536 5539 5546 5550 5559 5566 5584 5562 5584
5341 5347 5357 5372 5385 5403 5421 5441 5460 5475 5493 5502 5500 5504 5498 5498 5512 5516 5516 5521 5518 5518 5516 5522 5525 5528 5530 5534 5533 5534 5532 5541 5534 5525 5510 5498 5509 5537 5556 5571 5580 5575 5574 5574 5565 5575 5614
5342 5346 5356 5373 5389 5400 5419 5438 5453 5463 5488 5502 5502 5508 5516 5509 5509 5517 5521 5523 5521 5517 5517 5526 5523 5528 5534 5538 5540 5538 5544 5546 5533 5530 5513 5512 5527 5526 5549 5564 5585 5583 5579 5573 5564 5599 5626
5345 5349 5362 5374 5389 5406 5423 5437 5458 5471 5492 5501 5500 5506 5510 5510 5514 5510 5516 5525 5527 5519 5519 5533 5531 5540 5539 5540 5544 5547 5551 5547 5545 5529 5524 5521 5540 5555 5584 5584 5588 5584 5586 5594 5608 5628 5628
5350 5355 5367 5381 5396 5409 5421 5431 5450 5473 5486 5500 5498 5507 5518 5522 5520 5514 5520 5524 5533 5530 5527 5534 5529 5528 5539 5549 5551 5559 5562 5560 5559 5556 5549 5547 5552 5571 5575 5594 5590 5588 5604 5607 5615 5628 5633
5354 5361 5370 5380 5391 5406 5424 5440 5451 5470 5479 5492 5501 5502 5509 5517 5523 5525 5529 5530 5531 5534 5536 5535 5531 5526 5544 5552 5553 5559 5559 5556 5561 5558 5561 5555 5561 5572 5569 5583 5572 5602 5614 5621 5623 5629 5631
5351 5361 5372 5382 5392 5406 5422 5438 5450 5468 5477 5489 5497 5504 5508 5514 5522 5522 5526 5534 5534 5535 5533 5536 5539 5536 5541 5543 5545 5543 5544 5553 5554 5553 5561 5568 5564 5568 5566 5570 5592 5605 5611 5618 5618 5620 5629
5353 5358 5371 5382 5395 5408 5423 5436 5452 5463 5474 5489 5494 5500 5503 5509 5515 5523 5518 5524 5520 5525 5524 5532 5526 5529 5542 5542 5546 5540 5545 5548 5550 5559 5561 5571 5567 5566 5537 5565 5582 5604 5613 5620 5625 5605 5617
5349 5356 5367 5378 5390 5405 5419 5433 5449 5461 5472 5484 5492 5497 5500 5504 5515 5519 5517 5519 5522 5520 5520 5518 5524 5531 5538 5541 5542 5537 5544 5549 5550 5555 5559 5564 5561 5563 5565 5566 5580 5605 5612 5616 5605 5604 5615
5345 5354 5366 5377 5389 5401 5419 5434 5446 5456 5468 5476 5488 5492 5498 5504 5513 5519 5517 5514 5514 5516 5520 5519 5528 5528 5534 5540 5540 5555 5555 5554 5555 5561 5566 5570 5563 5565 5565 5568 5573 5606 5607 5607 5603 5610 5606
5342 5351 5363 5375 5388 5401 5415 5430 5443 5456 5465 5477 5486 5488 5493 5500 5508 5511 5518 5520 5523 5521 5518 5519 5529 5541 5545 5547 5548 5555 5557 5558 5558 5562 5568 5568 5577 5577 5577 5582 5596 5598 5602 5605 5604 5602 5596